DW7379 Weather Reports


time (UTC)temp
C
wind
direction
speed
KPH
gust
KPH
rain 1hr
cm
rain 24hr
cm
rain mn
cm
humidity
%
barometer
mb
20260506031905 11 27 4.8 9.7 0.00 0.00 0.00 74 1012.0
20260506031405 11 35 8.0 12.9 0.00 0.00 0.00 74 1012.0
20260506025904 11 43 6.4 12.9 0.00 0.00 0.00 72 1012.0
20260506025404 11 50 4.8 12.9 0.00 0.00 0.00 72 1012.0
20260506024903 11 39 3.2 19.3 0.00 0.00 0.00 73 1012.0
20260506024403 11 41 4.8 12.9 0.00 0.00 0.00 73 1012.0
20260506023904 11 61 3.2 9.7 0.00 0.00 0.00 74 1011.9
20260506022904 11 51 4.8 11.3 0.00 0.00 0.00 75 1011.9
20260506022404 11 35 6.4 12.9 0.00 0.00 0.00 75 1011.9
20260506021405 11 64 4.8 9.7 0.00 0.00 0.00 75 1011.9
20260506020903 11 56 4.8 11.3 0.00 0.00 0.00 75 1011.9
20260506020404 11 52 4.8 11.3 0.00 0.00 0.00 74 1012.0
20260506015903 11 48 4.8 11.3 0.00 0.00 0.00 74 1012.0
20260506015405 11 49 6.4 12.9 0.00 0.00 0.00 73 1012.0
20260506014904 12 37 6.4 19.3 0.00 0.00 0.00 73 1012.0
20260506014403 12 64 4.8 9.7 0.00 0.00 0.00 73 1012.0
20260506013905 12 53 4.8 9.7 0.00 0.00 0.00 72 1012.1
20260506012404 12 49 4.8 14.5 0.00 0.00 0.00 71 1012.1
20260506011903 12 40 8.0 14.5 0.00 0.00 0.00 70 1012.1
20260506011403 12 52 6.4 12.9 0.00 0.00 0.00 70 1012.1
20260506010904 12 37 3.2 14.5 0.00 0.00 0.00 69 1012.1
20260506010404 12 53 8.0 19.3 0.00 0.00 0.00 69 1012.1
20260506005904 12 48 3.2 14.5 0.00 0.00 0.00 69 1012.1
20260506005404 12 62 4.8 12.9 0.00 0.00 0.00 69 1012.1
20260506004903 12 61 6.4 12.9 0.00 0.00 0.00 69 1012.0
20260506004403 12 52 8.0 16.1 0.00 0.00 0.00 68 1012.0
20260506003904 12 51 9.7 24.1 0.00 0.00 0.00 68 1012.1
20260506003404 12 55 8.0 19.3 0.00 0.00 0.00 68 1012.0
20260506002904 12 44 3.2 8.0 0.00 0.00 0.00 67 1012.1
20260506002404 12 79 4.8 12.9 0.00 0.00 0.00 66 1012.1
20260506001904 12 58 8.0 19.3 0.00 0.00 0.00 66 1012.2
20260506001403 12 62 6.4 12.9 0.00 0.00 0.00 66 1012.1
20260506000404 12 77 6.4 20.9 0.00 0.00 0.00 65 1012.0
20260505235903 12 72 8.0 16.1 0.00 0.00 0.00 65 1012.1
20260505235403 12 52 8.0 19.3 0.00 0.00 0.00 66 1012.0
20260505234904 13 63 6.4 14.5 0.00 0.00 0.00 67 1012.0
20260505234404 13 78 4.8 14.5 0.00 0.00 0.00 66 1012.0
20260505233904 13 75 4.8 12.9 0.00 0.00 0.00 65 1012.0
20260505233404 13 72 9.7 19.3 0.00 0.00 0.00 64 1012.0
20260505232904 13 51 4.8 16.1 0.00 0.00 0.00 65 1012.0
20260505231904 13 65 9.7 20.9 0.00 0.00 0.00 65 1011.9
20260505231404 13 45 6.4 16.1 0.00 0.00 0.00 70 1011.9
20260505230905 13 60 6.4 19.3 0.00 0.00 0.00 71 1011.9
20260505230403 13 52 6.4 14.5 0.00 0.00 0.00 72 1011.8
20260505225904 13 53 4.8 11.3 0.00 0.00 0.00 73 1011.8
20260505225404 13 38 8.0 19.3 0.00 0.00 0.00 73 1011.8
20260505224905 13 41 8.0 14.5 0.00 0.00 0.00 73 1011.7
20260505224404 13 53 4.8 11.3 0.00 0.00 0.00 73 1011.7
20260505223904 13 26 8.0 16.1 0.00 0.00 0.00 72 1011.7
20260505221904 13 27 4.8 14.5 0.00 0.00 0.00 71 1011.6
20260505221404 13 18 8.0 14.5 0.00 0.00 0.00 71 1011.6
20260505220903 13 23 8.0 16.1 0.00 0.00 0.00 71 1011.6
20260505220404 13 13 8.0 16.1 0.00 0.00 0.00 70 1011.6
20260505215904 13 22 8.0 14.5 0.00 0.00 0.00 70 1011.6
20260505215405 13 19 8.0 14.5 0.00 0.00 0.00 70 1011.6
20260505214904 13 13 8.0 19.3 0.00 0.00 0.00 70 1011.6
20260505214405 13 0 6.4 11.3 0.00 0.00 0.00 70 1011.6
20260505213904 13 21 4.8 12.9 0.00 0.00 0.00 70 1011.6
20260505213404 13 9 6.4 12.9 0.00 0.00 0.00 70 1011.6
20260505212904 13 6 4.8 16.1 0.00 0.00 0.00 70 1011.7
20260505212404 13 3 6.4 14.5 0.00 0.00 0.00 69 1011.7
20260505211904 13 10 6.4 16.1 0.00 0.00 0.00 69 1011.7
20260505211404 13 3 3.2 11.3 0.00 0.00 0.00 70 1011.6
20260505210904 13 4 4.8 11.3 0.00 0.00 0.00 70 1011.6
20260505205904 13 7 4.8 14.5 0.00 0.00 0.00 69 1011.6
20260505204904 14 30 3.2 11.3 0.00 0.00 0.00 69 1011.6
20260505204404 14 2 6.4 11.3 0.00 0.00 0.00 69 1011.6
20260505203904 14 8 4.8 11.3 0.00 0.00 0.00 69 1011.5
20260505203405 14 25 6.4 14.5 0.00 0.00 0.00 69 1011.5
20260505202904 14 42 4.8 9.7 0.00 0.00 0.00 69 1011.6
20260505202404 14 18 4.8 12.9 0.00 0.00 0.00 69 1011.5
20260505201903 14 56 4.8 9.7 0.00 0.00 0.00 69 1011.5
20260505200903 14 36 4.8 9.7 0.00 0.00 0.00 68 1011.4
20260505200404 14 14 4.8 9.7 0.00 0.00 0.00 68 1011.4
20260505195904 14 27 6.4 9.7 0.00 0.00 0.00 68 1011.4
20260505195403 14 21 8.0 12.9 0.00 0.00 0.00 68 1011.4
20260505194904 15 29 4.8 14.5 0.00 0.00 0.00 67 1011.3
20260505194403 15 8 6.4 16.1 0.00 0.00 0.00 67 1011.3
20260505193403 15 21 4.8 12.9 0.00 0.00 0.00 67 1011.2
20260505192904 15 9 4.8 12.9 0.00 0.00 0.00 67 1011.1
20260505192404 15 0 8.0 12.9 0.00 0.00 0.00 67 1011.1
20260505191903 15 15 8.0 12.9 0.00 0.00 0.00 66 1011.1
20260505191405 15 12 4.8 14.5 0.00 0.00 0.00 66 1011.1
20260505190404 15 4 6.4 12.9 0.00 0.00 0.00 66 1011.0
20260505185904 15 27 8.0 19.3 0.00 0.00 0.00 66 1011.1
20260505185403 15 9 6.4 12.9 0.00 0.00 0.00 67 1011.0
20260505184904 15 6 8.0 14.5 0.00 0.00 0.00 66 1011.0
20260505184404 15 346 8.0 19.3 0.00 0.00 0.00 66 1010.9
20260505183904 15 356 6.4 16.1 0.00 0.00 0.00 66 1010.9
20260505183404 15 354 8.0 11.3 0.00 0.00 0.00 65 1010.9
20260505182903 15 2 6.4 11.3 0.00 0.00 0.00 64 1010.9
20260505182405 15 12 4.8 11.3 0.00 0.00 0.00 63 1010.8
20260505181904 15 6 3.2 12.9 0.00 0.00 0.00 63 1010.8
20260505180904 15 28 8.0 12.9 0.00 0.00 0.00 62 1010.9
20260505180404 15 46 3.2 11.3 0.00 0.00 0.00 63 1010.9
20260505175904 15 22 6.4 11.3 0.00 0.00 0.00 63 1010.8
20260505175405 15 13 8.0 11.3 0.00 0.00 0.00 63 1010.9
20260505174904 15 36 4.8 9.7 0.00 0.00 0.00 63 1011.0
20260505173904 15 14 6.4 11.3 0.00 0.00 0.00 63 1010.9
20260505173403 15 38 8.0 11.3 0.00 0.00 0.00 62 1011.0
20260505172905 15 28 6.4 12.9 0.00 0.00 0.00 62 1011.0
20260505172403 15 34 4.8 16.1 0.00 0.00 0.00 62 1010.9
20260505171903 15 17 8.0 14.5 0.00 0.00 0.00 62 1011.0
20260505171405 15 13 6.4 11.3 0.00 0.00 0.00 62 1011.0
20260505170903 15 38 6.4 19.3 0.00 0.00 0.00 62 1011.0
20260505170404 15 36 3.2 9.7 0.00 0.00 0.00 62 1011.0
20260505165905 15 15 9.7 16.1 0.00 0.00 0.00 61 1011.1
20260505164905 16 37 8.0 14.5 0.00 0.00 0.00 61 1011.2
20260505164403 16 31 4.8 14.5 0.00 0.00 0.00 61 1011.2
20260505163903 16 36 4.8 14.5 0.00 0.00 0.00 61 1011.1
20260505163405 16 30 9.7 16.1 0.00 0.00 0.00 61 1011.1
20260505162903 16 35 9.7 16.1 0.00 0.00 0.00 60 1011.1
20260505162403 16 26 8.0 14.5 0.00 0.00 0.00 61 1011.1
20260505161905 16 31 8.0 16.1 0.00 0.00 0.00 62 1011.1
20260505161404 16 17 9.7 14.5 0.00 0.00 0.00 61 1011.0
20260505160904 16 37 4.8 16.1 0.00 0.00 0.00 61 1011.1
20260505152904 16 35 8.0 14.5 0.00 0.00 0.00 60 1011.2
20260505151906 16 10 8.0 14.5 0.00 0.00 0.00 61 1011.2
20260505150904 16 14 8.0 14.5 0.00 0.00 0.00 60 1011.3
20260505150405 16 30 8.0 16.1 0.00 0.00 0.00 60 1011.3
20260505140403 16 19 4.8 8.0 0.00 0.00 0.00 62 1011.5
20260505124903 15 38 9.7 19.3 0.00 0.00 0.00 63 1011.9
20260505124403 16 47 8.0 19.3 0.00 0.00 0.00 63 1012.0
20260505123904 16 34 8.0 19.3 0.00 0.00 0.00 64 1012.0
20260505122904 15 35 12.9 19.3 0.00 0.00 0.00 64 1012.0
20260505122405 15 30 8.0 19.3 0.00 0.00 0.00 64 1011.9
20260505121904 15 10 9.7 19.3 0.00 0.00 0.00 65 1011.9
20260505121404 15 19 8.0 16.1 0.00 0.00 0.00 65 1011.9
20260505120903 15 23 11.3 20.9 0.00 0.00 0.00 65 1011.9
20260505115903 15 45 8.0 19.3 0.00 0.00 0.00 65 1012.0
20260505115405 15 32 12.9 22.5 0.00 0.00 0.00 65 1012.0
20260505114904 15 39 9.7 19.3 0.00 0.00 0.00 66 1012.0
20260505114404 15 46 9.7 19.3 0.00 0.00 0.00 65 1012.0
20260505113904 15 37 9.7 19.3 0.00 0.00 0.00 65 1012.0
20260505113404 15 48 9.7 22.5 0.00 0.00 0.00 64 1012.0
20260505112904 15 47 11.3 20.9 0.00 0.00 0.00 64 1012.0
20260505112404 15 26 11.3 22.5 0.00 0.00 0.00 63 1012.0
20260505111904 16 32 14.5 22.5 0.00 0.00 0.00 61 1012.1
20260505111403 16 36 8.0 22.5 0.00 0.00 0.00 62 1012.0
20260505110404 15 13 8.0 25.7 0.00 0.00 0.00 64 1012.1
20260505101903 15 28 11.3 20.9 0.00 0.00 0.00 65 1012.4
20260505100905 15 25 9.7 22.5 0.00 0.00 0.00 66 1012.4
20260505095903 15 20 11.3 24.1 0.00 0.00 0.00 67 1012.4
20260505095405 15 21 12.9 24.1 0.00 0.00 0.00 66 1012.4
20260505094904 15 34 9.7 24.1 0.00 0.00 0.00 67 1012.4
20260505094405 15 35 12.9 24.1 0.00 0.00 0.00 67 1012.5
20260505093904 15 29 8.0 19.3 0.00 0.00 0.00 68 1012.5
20260505093404 15 35 8.0 19.3 0.00 0.00 0.00 67 1012.5
20260505092405 15 3 6.4 19.3 0.00 0.00 0.00 66 1012.4
20260505091903 16 29 9.7 19.3 0.00 0.00 0.00 66 1012.4
20260505091404 15 41 9.7 19.3 0.00 0.00 0.00 66 1012.5
20260505090904 15 32 11.3 19.3 0.00 0.00 0.00 66 1012.5
20260505085904 15 44 9.7 19.3 0.00 0.00 0.00 68 1012.6
20260505085404 15 27 9.7 22.5 0.00 0.00 0.00 67 1012.7
20260505084904 15 13 14.5 25.7 0.00 0.00 0.00 68 1012.7
20260505083904 15 28 9.7 22.5 0.00 0.00 0.00 69 1012.7
20260505082904 14 33 9.7 20.9 0.00 0.00 0.00 71 1012.6
20260505082404 15 20 11.3 19.3 0.00 0.00 0.00 70 1012.6
20260505081905 15 6 9.7 16.1 0.00 0.00 0.00 71 1012.6
20260505081404 14 6 9.7 19.3 0.00 0.00 0.00 69 1012.6
20260505075904 15 28 11.3 20.9 0.00 0.00 0.00 68 1012.6
20260505074904 14 28 8.0 14.5 0.00 0.00 0.00 71 1012.5
20260505074404 14 48 6.4 14.5 0.00 0.00 0.00 71 1012.5
20260505073904 14 49 3.2 11.3 0.00 0.00 0.00 76 1012.5
20260505073404 13 60 4.8 14.5 0.00 0.00 0.00 77 1012.5
20260505072903 13 26 4.8 14.5 0.00 0.00 0.00 78 1012.4
20260505072404 13 32 3.2 9.7 0.00 0.00 0.00 81 1012.4
20260505071905 12 30 4.8 14.5 0.00 0.00 0.00 82 1012.5
20260505071404 12 35 6.4 14.5 0.00 0.00 0.00 83 1012.6
20260505070904 12 32 8.0 14.5 0.00 0.00 0.00 83 1012.6
20260505070405 12 50 4.8 16.1 0.00 0.00 0.00 84 1012.6
20260505065905 12 40 8.0 16.1 0.00 0.00 0.00 84 1012.7
20260505065404 12 19 6.4 14.5 0.00 0.00 0.00 84 1012.7
20260505064904 12 5 4.8 9.7 0.00 0.00 0.00 85 1012.8
20260505064404 11 9 3.2 14.5 0.00 0.00 0.00 85 1012.8
20260505063904 11 39 3.2 8.0 0.00 0.00 0.00 85 1012.8
20260505062404 11 16 4.8 9.7 0.00 0.00 0.00 86 1013.0
20260505061405 11 16 6.4 14.5 0.00 0.00 0.00 85 1012.9
20260505060904 11 21 4.8 12.9 0.00 0.00 0.00 85 1012.9
20260505060403 11 15 4.8 9.7 0.00 0.00 0.00 86 1012.8
20260505055403 11 50 4.8 12.9 0.00 0.00 0.00 85 1012.8
20260505054904 11 20 4.8 14.5 0.00 0.00 0.00 85 1012.7
20260505053904 11 20 8.0 14.5 0.00 0.00 0.00 85 1012.7
20260505053403 11 7 8.0 12.9 0.00 0.00 0.00 85 1012.6
20260505052904 11 10 8.0 14.5 0.00 0.00 0.00 85 1012.6
20260505052404 11 15 4.8 11.3 0.00 0.00 0.00 85 1012.7
20260505051404 12 47 4.8 4.8 0.00 0.00 0.00 85 1012.6
20260505050904 12 34 4.8 9.7 0.00 0.00 0.00 85 1012.5
20260505050404 12 54 4.8 9.7 0.00 0.00 0.00 85 1012.6
20260505041406 12 35 4.8 9.7 0.00 0.00 0.00 84 1012.6
20260505040903 12 39 3.2 11.3 0.00 0.00 0.00 84 1012.6
20260505040403 12 12 6.4 14.5 0.00 0.00 0.00 84 1012.6
20260505035405 12 34 4.8 11.3 0.00 0.00 0.00 84 1012.7
20260505034903 12 47 4.8 12.9 0.00 0.00 0.00 83 1012.7
20260505034404 12 33 3.2 9.7 0.00 0.00 0.00 83 1012.7
20260505033904 12 17 6.4 9.7 0.00 0.00 0.00 83 1012.8
20260505033404 12 26 6.4 11.3 0.00 0.00 0.00 83 1012.8
20260505032904 12 39 6.4 12.9 0.00 0.00 0.00 83 1012.8
20260505032404 12 34 4.8 11.3 0.00 0.00 0.00 83 1012.7